Home   Weather   Bizerte   Past weeks
Flag for Tunisia

Past Weather in Bizerte, Tunisia — Yesterday and Last 2 Weeks

Now
81 °F

Passing clouds.


Feels Like: 83 °F
Forecast: 86 / 70 °F
Wind: 5 mph from Southeast

Location: Bizerte Airport

Current Time: Jul 18, 2019 at 8:46:35 am

Latest Report: Jul 18, 2019 at 8:00 am


Visibility: N/A

Pressure: 29.89 "Hg

Humidity: 66%

Dew Point: 68 °F

Location of BizerteLocation

Past Weather in Bizerte — Graph

°F

Bizerte Temperature Yesterday

Maximum temperature yesterday: 86 °F (at 1:00 pm)
Minimum temperature yesterday: 70 °F (at 12:00 am)
Average temperature yesterday: 80 °F

High & Low Weather Summary for the Past Weeks

 TemperatureHumidityPressure
High104 °F (Jul 7, 2:00 pm)89% (Jul 5, 10:00 pm)30.01 "Hg (Jul 5, 10:00 pm)
Low66 °F (Jul 18, 2:00 am)17% (Jul 7, 2:00 pm)29.71 "Hg (Jul 15, 4:00 am)
Average83 °F58%29.90 "Hg
* Reported Jul 3 7:00 am — Jul 18 7:00 am, Bizerte. Weather by CustomWeather, © 2019

Note: Actual official high and low records may vary slightly from our data, if they occured in-between our weather recording intervals... More about our weather records

Advertising

Bizerte Weather History for the Previous 24 Hours

Scroll right to see more
 ConditionsComfort  
Time TempWeatherWind HumidityBarometerVisibility
7:00 am
Thu, Jul 18
77 °FSunny.N/A74%29.89 "Hg10 mi
6:00 am68 °FSunny.5 mph88%29.86 "Hg10 mi
5:00 am68 °FClear.3 mph83%29.86 "Hg10 mi
4:00 am66 °FClear.3 mph88%29.86 "Hg10 mi
2:00 am66 °FClear.2 mph88%29.89 "Hg10 mi
1:00 am68 °FClear.3 mph83%29.92 "Hg10 mi
12:00 am68 °FClear.No wind83%29.92 "Hg10 mi
11:00 pm
Wed, Jul 17
72 °FClear.5 mph78%29.92 "Hg10 mi
10:00 pm72 °FClear.2 mph83%29.92 "Hg10 mi
9:00 pm72 °FClear.2 mph78%29.92 "Hg10 mi
8:00 pm73 °FClear.3 mph74%29.92 "Hg10 mi
7:00 pm79 °FPassing clouds.6 mph61%29.89 "HgN/A
6:00 pm81 °FSunny.9 mph62%29.89 "Hg10 mi
5:00 pm84 °FSunny.10 mph55%29.89 "Hg10 mi
4:00 pm84 °FPassing clouds.14 mph48%29.92 "HgN/A
3:00 pm86 °FPassing clouds.14 mph40%29.92 "HgN/A
2:00 pm86 °FPassing clouds.10 mph43%29.95 "HgN/A
1:00 pm86 °FScattered clouds.9 mph46%29.95 "HgN/A
12:00 pm84 °FPassing clouds.7 mph45%29.95 "HgN/A
11:00 am84 °FScattered clouds.9 mph48%29.95 "HgN/A
10:00 am82 °FScattered clouds.10 mph51%29.95 "HgN/A
9:00 am81 °FScattered clouds.14 mph58%29.95 "HgN/A
8:00 am77 °FScattered clouds.10 mph65%29.95 "HgN/A
Weather by CustomWeather, © 2019

See weather overview